Find Starlink 4522

NORAD ID: 53388 Int'l Des: 2022-097 Owner: SPXS Country: US Constellation: starlink operational
LEOCIRCULAR

实时位置

正在加载3D地球...

关于 Starlink 4522

正在加载描述...

即将过境

Passes for default location (London). Set your location on the main map for personalized predictions.

高度历史

Loading altitude history...

两行轨道根数

1 53388U 22097A 26121.51675588 -.00000719 00000-0 -27096-4 0 9991
2 53388 53.2171 246.9738 0001040 92.5401 267.5710 15.08841176206820
Epoch: May 1, 2026 • Age: 11 hours

当前状态

高度 542.1 km
速度 7.59 km/s
星下点 -7.78°S, 26.85°E
发射日期 Aug 10, 2022
运行时间 3.7 years
类型 internet

技术详情

分类 Payload
质量 297.00 kg
干质量 275.00 kg
总质量 297.00 kg
长度 0.20 m
直径 2.80 m
跨度 9.00 m
形状 Box + pan
制造商 SPXS
平台类型 Starlink
阶段状态 In Orbit
所有者/国家 SPXS/US

Most Searched